This demonstration page uses our WeatherBlox Daily Observations layout. Learn more.

Left ArrowRight Arrow

39.95238, -75.16362

Hourly Observations for September 10, 2019

Temp ( °F °C ) Dew Point ( °F °C ) Humidity (%) Winds ( mph kmh ) Pressure ( in mb ) Visibility ( mi km ) Precip ( " mm )
12:05 am 00:05 Mostly Cloudy 70 21.1 65 18.3 84 84 Calm 30.28 1025 10 16 0.00 0.00
12:54 am 00:54 Mostly Clear 69 20.6 64 17.8 84 84 Calm 30.27 1025 10 16 0.00 0.00
1:54 am 01:54 Mostly Clear 67 19.4 64 17.8 91 91 E 3 6 30.28 1025 10 16 0.00 0.00
2:54 am 02:54 Clear 68 20 65 18.3 90 90 Calm 30.29 1026 10 16 0.00 0.00
3:54 am 03:54 Mostly Clear 67 19.4 64 17.8 91 91 Calm 30.29 1026 10 16 0.00 0.00
4:54 am 04:54 Mostly Cloudy 66 18.9 64 17.8 93 93 Calm 30.30 1026 10 16 0.00 0.00
5:54 am 05:54 Mostly Cloudy 68 20 65 18.3 90 90 Calm 30.32 1027 10 16 0.00 0.00
6:54 am 06:54 Cloudy 67 19.4 64 17.8 91 91 ESE 5 7 30.33 1027 8 13 0.00 0.00
7:54 am 07:54 Cloudy 68 20 65 18.3 90 90 ESE 6 9 30.34 1027 10 16 0.00 0.00
8:54 am 08:54 Cloudy 70 21.1 66 18.9 87 87 ESE 6 9 30.35 1028 10 16 0.00 0.00
9:54 am 09:54 Cloudy 73 22.8 65 18.3 76 76 SSE 5 7 30.35 1028 10 16 0.00 0.00
10:54 am 10:54 Mostly Cloudy 77 25 64 17.8 64 64 SSE 6 9 30.35 1028 10 16 0.00 0.00
11:54 am 11:54 Mostly Cloudy 78 25.6 61 16.1 56 56 S 8 13 30.34 1027 10 16 0.00 0.00
1:54 pm 13:54 Mostly Cloudy 81 27.2 60 15.6 49 49 S 8 13 30.31 1026 10 16 0.00 0.00
2:54 pm 14:54 Mostly Cloudy 82 27.8 61 16.1 49 49 S 6 9 30.29 1026 10 16 0.00 0.00
3:54 pm 15:54 Mostly Cloudy 82 27.8 61 16.1 49 49 S 9 15 30.28 1025 10 16 0.00 0.00
4:54 pm 16:54 Partly Cloudy 83 28.3 57 13.9 41 41 SSW 12 19 30.28 1025 10 16 0.00 0.00
5:54 pm 17:54 Partly Cloudy 81 27.2 59 15 47 47 S 8 13 30.28 1025 10 16 0.00 0.00
6:54 pm 18:54 Mostly Cloudy 79 26.1 60 15.6 52 52 S 9 15 30.27 1025 10 16 0.00 0.00
7:54 pm 19:54 Mostly Cloudy 77 25 61 16.1 58 58 SSW 9 15 30.28 1025 10 16 0.00 0.00
8:54 pm 20:54 Mostly Cloudy 74 23.3 63 17.2 69 69 S 10 17 30.27 1025 10 16 0.00 0.00
9:54 pm 21:54 Mostly Cloudy 72 22.2 64 17.8 76 76 S 6 9 30.27 1025 10 16 0.00 0.00
10:54 pm 22:54 Mostly Clear 72 22.2 65 18.3 79 79 S 9 15 30.27 1025 10 16 0.00 0.00
11:54 pm 23:54 Mostly Clear 71 21.7 65 18.3 81 81 SSW 7 11 30.27 1025 10 16 0.00 0.00

Powered by AerisWeather